This is the latest recevied weather packets stored in our database for station/object N5LSN. If no packets are shown the sender has not sent any weather packets the latest 10 day(s).
| Time | Temp. | Humidity | Pressure | Rain* | Wind** | Luminosity | Snow |
|---|---|---|---|---|---|---|---|
| 1777581943 | 18.89° C | 60% | 1016.3 hPa | 0 mm | - | 273 W/m² | - |
| 1777581638 | 18.33° C | 59% | 1016.6 hPa | 0 mm | - | 329 W/m² | - |
| 1777581332 | 18.33° C | 61% | 1016.4 hPa | 0 mm | - | 175 W/m² | - |
| 1777581027 | 18.33° C | 59% | 1016.5 hPa | 0 mm | - | 367 W/m² | - |
| 1777580727 | 18.33° C | 60% | 1016.6 hPa | 0 mm | - | 353 W/m² | - |
| 1777580424 | 17.78° C | 61% | 1016.5 hPa | 0 mm | - | 373 W/m² | - |
| 1777580119 | 18.33° C | 64% | 1016.7 hPa | 0 mm | - | 323 W/m² | - |
| 1777579816 | 18.33° C | 64% | 1016.8 hPa | 0 mm | - | 300 W/m² | - |
| 1777579515 | 17.78° C | 62% | 1016.7 hPa | 0 mm | - | 302 W/m² | - |
| 1777579215 | 17.78° C | 62% | 1016.5 hPa | 0 mm | - | 288 W/m² | - |
| 1777578910 | 17.78° C | 62% | 1016.7 hPa | 0 mm | - | 281 W/m² | - |
| 1777578606 | 17.78° C | 63% | 1016.6 hPa | 0 mm | - | 263 W/m² | - |
| 1777578301 | 17.78° C | 63% | 1016.5 hPa | 0 mm | - | 265 W/m² | - |
| 1777577997 | 17.78° C | 65% | 1016.6 hPa | 0 mm | - | 252 W/m² | - |
| 1777577697 | 18.33° C | 62% | 1016.5 hPa | 0 mm | - | 239 W/m² | - |
| 1777577394 | 18.33° C | 63% | 1016.7 hPa | 0 mm | - | 260 W/m² | - |
| 1777577090 | 17.78° C | 64% | 1016.8 hPa | 0 mm | - | 302 W/m² | - |
| 1777576787 | 17.78° C | 64% | 1016.7 hPa | 0 mm | - | 295 W/m² | - |
| 1777576487 | 17.78° C | 64% | 1016.5 hPa | 0 mm | - | 294 W/m² | - |
| 1777576183 | 18.33° C | 63% | 1016.7 hPa | 0 mm | - | 279 W/m² | - |
| 1777575878 | 18.33° C | 62% | 1016.8 hPa | 0 mm | - | 353 W/m² | - |
| 1777575576 | 18.33° C | 60% | 1016.5 hPa | 0 mm | - | 320 W/m² | - |
| 1777575272 | 17.78° C | 62% | 1016.6 hPa | 0 mm | - | 343 W/m² | - |
| 1777574967 | 17.78° C | 60% | 1016.6 hPa | 0 mm | - | 352 W/m² | - |
| 1777574664 | 17.78° C | 61% | 1016.6 hPa | 0 mm | - | 372 W/m² | - |
* Rain latest hour (hover to see other rain measurements)
** Current wind speed in m/s (hover to see current wind gust speed)